[[{"header":{"parameterUnit":"m.s-1","parameterCategory":1,"la1":30.2991,"la2":30.254,"lo1":-89.0895,"lo2":-89.0444,"dy":0.0017,"dx":0.0017,"nx":28,"ny":28,"refTime":"2024-07-10T03:00:00:Z","depth":0,"parameterNumber":2,"parameterNumberName":"U-component_of_WINDS"},"data":[0,0,0,0,0,0,0,0,0,0,0,0,0,0,0,0,0,0,0,0,0,0,0,0,0,0,0,0,0,0,0,0,0,0,0,0,0,0,0,0,0,0,0,0,0,0,0,0,0,0,0,0,0,0,0,0,0,0,4.1805,4.1806,0,4.1889,4.189,4.1891,4.1879,4.1878,4.1876,4.1875,4.1962,4.1966,4.197,0,0,0,0,0,0,0,0,0,0,0,0,0,4.1637,4.164,4.1805,4.1806,4.1807,4.1889,4.189,4.1891,4.1879,4.1878,4.1876,4.1874,4.1961,4.1965,4.197,0,0,0,0,0,0,0,0,0,0,0,0,0,4.1714,4.1641,4.1805,4.1811,4.1812,4.1889,4.189,4.1891,4.188,4.1878,4.1876,4.1874,4.196,4.1965,4.197,4.2046,0,0,4.1987,4.1989,0,0,0,0,0,0,0,0,4.171,4.172,4.1809,4.1811,4.1812,4.1871,4.1863,4.1943,4.188,4.1854,4.1875,4.1873,4.1934,4.1941,4.1962,4.205,4.2054,4.1988,4.1991,4.1993,4.1995,0,0,0,0,0,0,0,4.1704,4.1717,4.1838,4.181,4.1812,4.181,4.1819,4.1878,4.1905,4.1856,4.1856,4.1866,4.1934,4.1956,4.1964,4.2055,4.1987,4.1992,4.1996,4.1998,4.2211,4.2213,0,0,0,0,0,0,4.1697,4.1712,4.1836,4.1841,4.1755,4.1815,4.1825,4.1855,4.1904,4.191,4.1867,4.1865,4.1948,4.1957,4.1967,4.2059,4.1993,4.1998,4.2001,4.2209,4.2211,4.2214,0,0,0,0,0,0,4.1694,4.1708,4.1832,4.1776,4.1792,4.182,4.1854,4.1857,4.1879,4.1913,4.1917,4.1885,4.1947,4.1959,4.2026,4.2061,4.2001,4.2006,4.2206,4.2209,4.2213,4.2243,0,0,0,0,0,0,4.1689,4.1707,4.1735,4.1777,4.1795,4.189,4.1856,4.1861,4.1889,4.1886,4.193,4.1935,4.1946,4.2018,4.2032,4.2068,4.201,4.2203,4.2207,4.2212,4.2239,4.2247,4.2254,0,0,0,0,0,4.1683,4.1741,4.1737,4.1752,4.1831,4.1892,4.1902,4.1913,4.1891,4.1921,4.1942,4.1934,4.2056,4.2025,4.204,4.2079,4.22,4.2206,4.2211,4.2235,4.2245,4.2254,0,0,0,0,0,0,4.1702,4.1746,4.1742,4.1815,4.185,4.189,4.1926,4.1923,4.1965,4.1961,4.1973,4.1983,4.2051,4.2072,4.2037,4.2155,4.2125,4.2134,4.2139,4.2148,4.2156,4.2149,4.2014,0,0,0,0,0,4.1715,4.176,4.1796,4.1857,4.1875,4.1898,4.1925,4.193,4.1967,4.1981,4.2008,4.2044,4.2091,4.2121,4.2165,4.2242,4.2252,4.2276,4.2284,4.229,4.2297,4.234,4.2351,4.2232,4.2232,4.2232,0,0,4.1742,4.1771,4.1799,4.1862,4.1889,4.1937,4.191,4.1961,4.1996,4.1989,4.2054,4.2075,4.2117,4.2189,4.2223,4.2209,4.2333,4.2297,4.2301,4.2305,4.2347,4.2358,4.2368,4.2235,4.2235,4.2234,0,0,4.1814,4.1841,4.1895,4.1923,4.1965,4.1981,4.1994,4.2035,4.2048,4.2114,4.211,4.2152,4.2232,4.2262,4.2287,4.2373,4.2368,4.2388,4.2427,4.2469,4.2478,4.2487,4.2517,4.2528,4.2395,4.2395,4.2395,0,4.1842,4.1912,4.1923,4.1975,4.2003,4.1999,4.2054,4.2081,4.2136,4.2156,4.214,4.224,4.2268,4.2347,4.2369,4.239,4.2405,4.2382,4.2476,4.2484,4.2492,4.2522,4.2533,4.2397,4.2397,4.2397,4.2397,0,4.1944,4.1994,4.2032,4.2085,4.2118,4.2171,4.219,4.2222,4.2226,4.2243,4.2311,4.2344,4.2395,4.2415,4.2419,4.2496,4.2486,4.2473,4.2443,4.2506,4.2533,4.2545,4.24,4.2399,4.2399,4.2398,0,0,4.2029,4.2089,4.2103,4.2127,4.2174,4.2212,4.2266,4.2316,4.2344,4.2382,4.2428,4.2496,4.2485,4.2514,4.2521,4.2558,4.2624,4.254,4.2542,4.2554,4.2712,4.272,4.2733,4.2621,4.2623,4.2625,4.2708,0,4.2106,4.22,4.2212,4.2296,4.2342,4.234,4.2387,4.2421,4.244,4.2482,4.2502,4.255,4.2531,4.2549,4.2585,4.2608,4.2656,4.2603,4.2664,4.2666,4.2652,4.2748,4.2757,4.2833,4.2719,4.2721,4.2722,0,4.2207,4.2249,4.2337,4.2379,4.2398,4.244,4.2488,4.2528,4.2568,4.2578,4.2612,4.2615,4.2671,4.2641,4.2719,4.2683,4.2709,4.2724,4.2727,4.2733,4.2697,4.2755,4.2858,4.2869,4.2739,4.2738,4.2737,0,4.226,4.2338,4.2401,4.2422,4.2472,4.2502,4.2524,4.2562,4.2592,4.2634,4.2653,4.2702,4.2728,4.2766,4.2783,4.2758,4.286,4.283,4.2871,4.2871,4.2891,4.2889,4.2999,4.291,4.291,4.2909,4.2909,0,4.2343,4.2397,4.2425,4.2464,4.2525,4.2539,4.2599,4.2621,4.2655,4.2698,4.27,4.2741,4.2761,4.2805,4.2819,4.2882,4.2894,4.2904,4.2907,4.2904,4.2902,4.292,4.2915,4.2912,4.2912,4.2911,4.2911,0,4.2411,4.2432,4.2501,4.2544,4.2556,4.2599,4.2635,4.2673,4.2692,4.2747,4.2761,4.279,4.2842,4.2863,4.2927,4.2936,4.3009,4.3008,4.2995,4.2996,4.3035,4.303,4.3159,4.3176,4.3076,4.3077,4.3078,0,4.2463,4.2504,4.2552,4.2581,4.2604,4.2651,4.2682,4.2699,4.2731,4.278,4.2812,4.2864,4.2906,4.2991,4.3018,4.3067,4.3067,4.3109,4.3074,4.307,4.3067,4.3064,4.3068,4.3115,4.3116,4.3116,4.3117,0,4.2551,4.256,4.2604,4.2652,4.2689,4.2727,4.2765,4.2789,4.2812,4.2848,4.2901,4.2934,4.3,4.3052,4.3103,4.3127,4.3126,4.3128,4.314,4.3136,4.3127,4.3132,4.3011,4.3125,4.3124,4.3123,4.3123,4.3123,4.2612,4.2649,4.2689,4.2738,4.2768,4.2804,4.2842,4.2865,4.291,4.2964,4.2972,4.303,4.307,4.3138,4.3165,4.321,4.32,4.3217,4.3221,4.3225,4.3227,4.312,4.322,4.322,4.322,4.322,4.3219,0,4.27,4.2726,4.2771,4.2824,4.2863,4.286,4.2902,4.2934,4.2985,4.3022,4.3064,4.3126,4.3177,4.3209,4.3261,4.3291,4.3292,4.3304,4.3301,4.3307,4.3234,4.3218,4.3303,4.3303,4.3302,4.3302,4.3302,4.3302,4.275,4.2813,4.2827,4.2905,4.2931,4.2986,4.3011,4.3044,4.3074,4.3143,4.3185,4.3206,4.3242,4.3296,4.3343,4.3351,4.337,4.3383,4.339,4.3321,4.3312,4.3304,4.3289,4.3387,4.3387,4.3459,4.346,4.346]},{"header":{"parameterUnit":"m.s-1","parameterCategory":1,"la1":30.2991,"la2":30.254,"lo1":-89.0895,"lo2":-89.0444,"dy":0.0017,"dx":0.0017,"nx":28,"ny":28,"refTime":"2024-07-10T03:00:00:Z","depth":0,"parameterNumber":3,"parameterNumberName":"V-component_of_WINDS"},"data":[0,0,0,0,0,0,0,0,0,0,0,0,0,0,0,0,0,0,0,0,0,0,0,0,0,0,0,0,0,0,0,0,0,0,0,0,0,0,0,0,0,0,0,0,0,0,0,0,0,0,0,0,0,0,0,0,0,0,4.9382,4.9383,0,4.9515,4.9516,4.9518,4.9567,4.9566,4.9566,4.9565,4.9695,4.9699,4.9703,0,0,0,0,0,0,0,0,0,0,0,0,0,4.9166,4.9169,4.9382,4.9384,4.9385,4.9514,4.9516,4.9518,4.9567,4.9566,4.9566,4.9565,4.9694,4.9699,4.9703,0,0,0,0,0,0,0,0,0,0,0,0,0,4.9275,4.9171,4.9382,4.9425,4.943,4.9514,4.9516,4.9519,4.9567,4.9566,4.9566,4.9565,4.9693,4.9698,4.9704,4.9752,0,0,4.9722,4.9724,0,0,0,0,0,0,0,0,4.9269,4.9283,4.9417,4.9422,4.9428,4.9524,4.9488,4.9597,4.9567,4.9515,4.9565,4.9565,4.9638,4.9649,4.9675,4.9758,4.9764,4.9722,4.9726,4.9728,4.973,0,0,0,0,0,0,0,4.9261,4.9277,4.9434,4.9419,4.9426,4.9437,4.9451,4.9509,4.9578,4.9519,4.9523,4.9539,4.9641,4.9669,4.9678,4.9766,4.9722,4.9727,4.9731,4.9733,4.9897,4.9898,0,0,0,0,0,0,4.9247,4.9271,4.943,4.9438,4.9346,4.9441,4.9458,4.9494,4.9578,4.959,4.9539,4.954,4.9659,4.9671,4.9683,4.9746,4.9728,4.9733,4.9737,4.9896,4.9897,4.9898,0,0,0,0,0,0,4.9242,4.9261,4.9425,4.9356,4.9377,4.9445,4.9485,4.9496,4.9524,4.9593,4.9605,4.9555,4.9659,4.9675,4.9735,4.9751,4.9736,4.9741,4.9895,4.9896,4.9897,4.9872,0,0,0,0,0,0,4.9236,4.9259,4.9279,4.9356,4.9381,4.9476,4.9486,4.95,4.9535,4.9538,4.9611,4.9622,4.966,4.9726,4.9741,4.9759,4.9746,4.9894,4.9895,4.9897,4.9871,4.9872,4.9872,0,0,0,0,0,4.9228,4.9265,4.928,4.9298,4.9408,4.9477,4.9491,4.9536,4.9536,4.9556,4.96,4.962,4.9747,4.9732,4.9749,4.9769,4.9893,4.9895,4.9897,4.9871,4.9872,4.9872,0,0,0,0,0,0,4.9185,4.9275,4.9293,4.9356,4.9409,4.9485,4.9512,4.9535,4.9587,4.9587,4.9638,4.9654,4.9711,4.9746,4.9728,4.982,4.9821,4.9826,4.9796,4.9797,4.9797,4.9788,4.9751,0,0,0,0,0,4.9183,4.9234,4.9309,4.9358,4.9384,4.9443,4.9475,4.9505,4.9561,4.9583,4.9631,4.9683,4.9735,4.9768,4.9819,4.9877,4.9893,4.9898,4.9899,4.9899,4.9903,4.9937,4.994,4.9904,4.9904,4.9904,0,0,4.918,4.9235,4.9264,4.9351,4.9395,4.9445,4.9461,4.9513,4.9551,4.959,4.9651,4.9688,4.975,4.9809,4.9838,4.984,4.9917,4.9901,4.9901,4.9905,4.9939,4.9943,4.9946,4.9906,4.9905,4.9905,0,0,4.9199,4.9246,4.9292,4.9337,4.9405,4.9445,4.9455,4.9529,4.9556,4.9619,4.965,4.9694,4.9782,4.9825,4.9858,4.9895,4.9915,4.991,4.9912,4.9945,4.9948,4.995,4.9964,4.9969,4.9913,4.9913,4.9913,0,4.9185,4.9263,4.9312,4.9364,4.9401,4.9441,4.9488,4.9528,4.9608,4.9632,4.9634,4.9747,4.9791,4.9861,4.9871,4.9896,4.991,4.9902,4.9944,4.9947,4.995,4.9964,4.9969,4.9912,4.9913,4.9913,4.9913,0,4.9243,4.9297,4.9326,4.9406,4.9446,4.9494,4.9549,4.9584,4.9611,4.965,4.9713,4.9767,4.9831,4.985,4.9875,4.9925,4.9924,4.9934,4.9936,4.9952,4.9966,4.9971,4.9911,4.9911,4.9912,4.9912,0,0,4.9238,4.9346,4.9356,4.9393,4.9471,4.9513,4.9563,4.9628,4.9657,4.9711,4.9754,4.9828,4.9838,4.9876,4.9906,4.9935,4.9962,4.9942,4.9944,4.9944,5.002,5.0013,5.0018,4.9976,4.9977,4.9978,5.0015,0,4.9268,4.9362,4.9408,4.9481,4.9532,4.9571,4.9615,4.9667,4.9705,4.9752,4.9793,4.9846,4.9855,4.9878,4.9908,4.9952,4.9978,4.995,5.0015,5.0017,5.0,5.0025,5.0017,5.005,5.0021,5.0022,5.0023,0,4.9316,4.9372,4.9451,4.9525,4.9548,4.9587,4.965,4.9695,4.9755,4.978,4.9824,4.9854,4.9907,4.9905,4.9979,4.9959,4.9988,5.0014,5.0016,5.0025,5.0021,5.0034,5.0062,5.0067,5.0031,5.0031,5.003,0,4.9305,4.9401,4.9461,4.9491,4.9579,4.9605,4.9642,4.9702,4.9738,4.9793,4.9817,4.9876,4.9909,4.9953,4.9999,4.9993,5.0068,5.007,5.0091,5.009,5.0105,5.0103,5.0138,5.0123,5.0123,5.0123,5.0122,0,4.9334,4.9381,4.9458,4.9494,4.9548,4.96,4.9651,4.9691,4.9744,4.9788,4.9825,4.9865,4.9923,4.997,5.0005,5.0062,5.0075,5.0097,5.0106,5.0095,5.0092,5.0115,5.0114,5.0124,5.0124,5.0123,5.0123,0,4.9331,4.9385,4.9453,4.9531,4.9552,4.9588,4.9654,4.9691,4.9731,4.9787,4.9803,4.9866,4.9924,4.9974,5.0049,5.0073,5.0131,5.0142,5.0112,5.0117,5.0135,5.0133,5.0186,5.0196,5.0173,5.0173,5.0173,0,4.9346,4.9384,4.9467,4.9501,4.9538,4.9591,4.963,4.9682,4.972,4.9792,4.9819,4.9881,4.9933,5.0023,5.0074,5.0133,5.0145,5.016,5.0154,5.0141,5.0146,5.0144,5.0148,5.016,5.016,5.016,5.016,0,4.9368,4.9393,4.9447,4.9512,4.9557,4.9609,4.9662,4.9687,4.9749,4.979,4.9851,4.9891,4.997,5.003,5.0095,5.0131,5.0156,5.0161,5.0169,5.0158,5.014,5.0151,5.0113,5.016,5.016,5.016,5.016,5.016,4.9375,4.9411,4.9476,4.9535,4.9581,4.9631,4.967,4.9716,4.9769,4.9839,4.9866,4.9928,4.9988,5.0077,5.0114,5.0163,5.0166,5.0178,5.0181,5.0183,5.0182,5.0132,5.0174,5.0175,5.0175,5.0175,5.0175,0,4.9399,4.9443,4.9498,4.9573,4.962,4.9641,4.9701,4.9739,4.9794,4.9848,4.9899,4.997,5.0029,5.0086,5.0147,5.0176,5.0188,5.019,5.0189,5.0197,5.0174,5.0162,5.0179,5.0179,5.0179,5.0179,5.0179,5.0179,4.9417,4.9479,4.9512,4.9597,4.964,4.9704,4.9737,4.9782,4.9826,4.9904,4.9954,4.9992,5.0047,5.0114,5.0168,5.0184,5.0205,5.0204,5.0221,5.0199,5.0198,5.0197,5.0186,5.0208,5.0208,5.024,5.0241,5.0241]}]]